Weather in Kalynove

Ukraine / Donetsk Region     47°27′25″N   37°27′56″E
temp.,
°C
wind,
m/s
gust,
m/s
humid.,
%
clouds,
%
prec.,
mm/h
press.,
hPa
HPBL,
m
9 may, sun
sun900:00+9nnw101488100 0.3 1010616
03:00+6nnw91490100 3.8 1012637
06:00+6nw8158599 0.0 1014783
09:00+6nw81280100 0.0 1016813
12:00+10nnw91256100 0.0 10171261
15:00+13nnw91141100 0.0 10172169
18:00+12nnw710475 0.0 10202280
21:00+7nw410655 0.0 1022268
10 may, mon
mon1000:00+5nw410766 0.0 1024223
03:00+4nw410805 0.0 1024234
06:00+4nw512813 0.0 1024359
09:00+10nnw71157100 0.0 10231380
12:00+13nnw91141100 0.0 10212494
15:00+13nnw71145100 0.0 10202329
18:00+12nnw71352100 0.0 10181776
21:00+10nw91554100 0.0 10161423
11 may, tue
tue1100:00+8nw111772100 0.4 10121182
03:00+8nw101694100 3.3 1009992
06:00+8n71288100 0.3 1010856
09:00+7nne61082100 0.3 10121046
12:00+10nne7865100 0.2 10121392
15:00+8n4574100 0.4 1013937
18:00+7nnw3487100 0.4 1013331
21:00+7se2287100 0.5 101492
12 may, wed
wed1200:00+6ese3590100 0.1 1014108
03:00+6ese3595100 0.2 1015103
06:00+7ese3792100 0.0 1015188
09:00+11se798529 1.1 1015691
12:00+12sse81178100 1.3 10161173
15:00+13sse796799 1.5 10161278
18:00+15se597027 0.0 1016985
21:00+11ese34885 0.0 101662
13 may, thu
thu1300:00+10e3592100 0.0 101691
03:00+10e49945 0.0 1015175
06:00+10e51186100 0.0 1015227
09:00+16ese71166100 0.0 1015571
12:00+20ese81056100 0.0 1014901
15:00+22ese895697 0.0 1013918
18:00+20ese7127014 0.0 1013703
21:00+16ese513860 0.0 1013329